Location: Unspecified
(41.5000°N, 0.0000°E)
Time: 05:03:12
(UTC+00:00)

Vanguard 3 - Pass Details

Date: 23 June 2019
Orbit: 507 x 3264 km, 33.4° (Epoch: 22 July)

Event Time Altitude Azimuth Distance (km) Brightness Sun altitude
Rises 08:29:50 0° 206° (SSW) 7,105 11.8 42.5°
Reaches altitude 10° 08:36:25 10° 194° (SSW) 5,826 11.5 43.8°
Maximum altitude 08:48:05 23° 151° (SSE) 4,046 11.4 45.9°
Drops below altitude 10° 08:56:40 10° 106° (ESE) 4,197 11.8 47.5°
Sets 09:00:20 0° 92° (E) 4,776 11.8 48.2°
